User: anonymous   Login
Location: Unspecified
(0.0000°N, 0.0000°E)
Time: 15:04:10
(UTC+00:00)
Language:

WGS 6 (USA 244) - Orbit

View from above orbital plane
View from above orbital plane
View from above satellite
View from above satellite

Ground track
Ground track

The orbit data is extracted from the following two-line orbital elements,

1 39222U 13041A   18299.88128116 0.00000000  00000-0  00000-0 0    04
2 39222   0.0250 217.2401 0001003  20.5155 339.5138  1.00270000    08
Epoch (UTC): 26 October 2018 21:09:02
Eccentricity: 0.0001003
inclination: 0.0250°
perigee height: 35782 km
apogee height: 35791 km
right ascension of ascending node: 217.2401°
argument of perigee: 20.5155°
revolutions per day: 1.00270000
mean anomaly at epoch: 339.5138°
orbit number at epoch: 0

The dashed part of the orbit path shows where the satellite is in the earth's shadow,  

DLR